• In Latvia
  • List of Countries
  • For 7 days
  • Water Temperature
  • Satellite Maps
  • Weather Map
  • Weather Widgets
  • user-avatar
    Login

    Hourly Weather Kulakovo

    Today, 21 September, Friday

    Time Temperature Precipitation Wind Pressure Humidity
    00:00 +14°C° 0 mm 2 mps 746 mmHg 93%
    01:00 +14°C° 0 mm 2 mps 746 mmHg 93%
    02:00 +14°C° 0 mm 2 mps 746 mmHg 94%
    03:00 +14°C° 0 mm 2 mps 746 mmHg 95%
    04:00 +13°C° 0 mm 2 mps 746 mmHg 95%
    05:00 +13°C° 0 mm 2 mps 746 mmHg 95%
    06:00 +15°C° 0 mm 2 mps 747 mmHg 91%
    07:00 +16°C° 0 mm 2 mps 747 mmHg 86%
    08:00 +18°C° 0 mm 3 mps 747 mmHg 81%
    09:00 +19°C° 0 mm 3 mps 747 mmHg 76%
    10:00 +21°C° 0 mm 4 mps 747 mmHg 71%
    11:00 +22°C° 0 mm 4 mps 747 mmHg 66%
    12:00 +23°C° 0.1 mm 4 mps 747 mmHg 65%
    13:00 +23°C° 0.1 mm 4 mps 747 mmHg 64%
    14:00 +25°C° 0.1 mm 4 mps 747 mmHg 63%
    15:00 +24°C° 0.2 mm 3 mps 747 mmHg 69%
    16:00 +22°C° 0.2 mm 3 mps 746 mmHg 75%
    17:00 +21°C° 0.2 mm 2 mps 746 mmHg 80%
    18:00 +20°C° 0 mm 2 mps 746 mmHg 84%
    19:00 +19°C° 0 mm 2 mps 746 mmHg 87%
    20:00 +18°C° 0 mm 2 mps 746 mmHg 91%
    21:00 +17°C° 0 mm 2 mps 746 mmHg 91%
    22:00 +17°C° 0 mm 2 mps 746 mmHg 92%
    23:00 +16°C° 0 mm 2 mps 746 mmHg 93%

    Tomorrow, 22 September, Saturday

    Time Temperature Precipitation Wind Pressure Humidity
    00:00 +16°C° 0 mm 2 mps 746 mmHg 93%
    01:00 +16°C° 0 mm 2 mps 746 mmHg 94%
    02:00 +16°C° 0 mm 3 mps 746 mmHg 95%
    03:00 +16°C° 0 mm 3 mps 745 mmHg 95%
    04:00 +14°C° 0 mm 3 mps 745 mmHg 96%
    05:00 +14°C° 0 mm 3 mps 745 mmHg 96%
    06:00 +15°C° 0 mm 4 mps 744 mmHg 91%
    07:00 +17°C° 0 mm 4 mps 744 mmHg 85%
    08:00 +18°C° 0 mm 4 mps 744 mmHg 80%
    09:00 +20°C° 0 mm 5 mps 743 mmHg 72%
    10:00 +21°C° 0 mm 5 mps 743 mmHg 64%
    11:00 +23°C° 0 mm 6 mps 742 mmHg 56%
    12:00 +23°C° 0 mm 6 mps 742 mmHg 54%
    13:00 +24°C° 0 mm 6 mps 742 mmHg 51%
    14:00 +24°C° 0 mm 6 mps 741 mmHg 49%
    15:00 +23°C° 0 mm 5 mps 741 mmHg 54%
    16:00 +22°C° 0 mm 5 mps 741 mmHg 59%
    17:00 +21°C° 0 mm 4 mps 741 mmHg 64%
    18:00 +19°C° 0.1 mm 4 mps 741 mmHg 71%
    19:00 +17°C° 0.1 mm 3 mps 741 mmHg 78%
    20:00 +16°C° 0.1 mm 3 mps 741 mmHg 85%
    21:00 +14°C° 0.4 mm 3 mps 741 mmHg 85%
    22:00 +14°C° 0.4 mm 2 mps 741 mmHg 86%
    23:00 +13°C° 0.4 mm 2 mps 741 mmHg 87%

    Day after tomorrow, 23 September, Sunday

    Time Temperature Precipitation Wind Pressure Humidity
    00:00 +12°C° 0.2 mm 2 mps 741 mmHg 87%
    01:00 +12°C° 0.2 mm 2 mps 741 mmHg 88%
    02:00 +10°C° 0.2 mm 3 mps 741 mmHg 89%
    03:00 +10°C° 0.5 mm 2 mps 740 mmHg 90%
    04:00 +10°C° 0.5 mm 2 mps 740 mmHg 92%
    05:00 +10°C° 0.5 mm 2 mps 740 mmHg 93%
    06:00 +9°C° 1.1 mm 2 mps 740 mmHg 93%
    07:00 +9°C° 1.1 mm 2 mps 739 mmHg 94%
    08:00 +9°C° 1.1 mm 2 mps 739 mmHg 94%
    09:00 +10°C° 0.7 mm 2 mps 739 mmHg 92%
    10:00 +10°C° 0.7 mm 2 mps 739 mmHg 91%
    11:00 +10°C° 0.7 mm 2 mps 739 mmHg 89%
    12:00 +12°C° 0.2 mm 2 mps 739 mmHg 85%
    13:00 +13°C° 0.2 mm 2 mps 739 mmHg 82%
    14:00 +13°C° 0.2 mm 2 mps 739 mmHg 78%
    15:00 +13°C° 0.1 mm 2 mps 739 mmHg 81%
    16:00 +12°C° 0.1 mm 2 mps 739 mmHg 83%
    17:00 +12°C° 0.1 mm 2 mps 739 mmHg 86%
    18:00 +10°C° 0.1 mm 2 mps 739 mmHg 88%
    19:00 +9°C° 0.1 mm 2 mps 739 mmHg 90%
    20:00 +8°C° 0.1 mm 2 mps 739 mmHg 92%
    21:00 +8°C° 0 mm 2 mps 739 mmHg 93%
    22:00 +7°C° 0 mm 2 mps 738 mmHg 94%
    23:00 +7°C° 0 mm 2 mps 738 mmHg 96%

    24 September, Monday

    Time Temperature Precipitation Wind Pressure Humidity
    00:00 +7°C° 0 mm 2 mps 738 mmHg 96%
    01:00 +6°C° 0 mm 2 mps 738 mmHg 96%
    02:00 +6°C° 0 mm 2 mps 738 mmHg 97%
    03:00 +6°C° 0 mm 2 mps 738 mmHg 97%
    04:00 +6°C° 0 mm 2 mps 738 mmHg 97%
    05:00 +5°C° 0 mm 3 mps 738 mmHg 97%
    06:00 +7°C° 0 mm 3 mps 738 mmHg 95%
    07:00 +7°C° 0 mm 3 mps 738 mmHg 92%
    08:00 +8°C° 0 mm 3 mps 738 mmHg 90%
    09:00 +9°C° 0.1 mm 3 mps 738 mmHg 87%
    10:00 +9°C° 0.1 mm 3 mps 738 mmHg 84%
    11:00 +10°C° 0.1 mm 3 mps 739 mmHg 81%
    12:00 +10°C° 0.1 mm 3 mps 739 mmHg 78%
    13:00 +11°C° 0.1 mm 3 mps 738 mmHg 75%
    14:00 +11°C° 0.1 mm 3 mps 738 mmHg 72%
    15:00 +10°C° 0.1 mm 2 mps 738 mmHg 76%
    16:00 +10°C° 0.1 mm 2 mps 738 mmHg 80%
    17:00 +10°C° 0.1 mm 1 mps 738 mmHg 84%
    18:00 +9°C° 0 mm 1 mps 738 mmHg 87%
    19:00 +8°C° 0 mm 1 mps 738 mmHg 90%
    20:00 +7°C° 0 mm 1 mps 738 mmHg 93%
    21:00 +7°C° 0 mm 1 mps 737 mmHg 93%
    22:00 +7°C° 0 mm 1 mps 737 mmHg 93%
    23:00 +7°C° 0 mm 1 mps 737 mmHg 94%

    25 September, Tuesday

    Time Temperature Precipitation Wind Pressure Humidity
    00:00 +7°C° 0 mm 1 mps 737 mmHg 94%
    01:00 +6°C° 0 mm 2 mps 737 mmHg 95%
    02:00 +6°C° 0 mm 2 mps 736 mmHg 95%
    03:00 +6°C° 0.1 mm 2 mps 736 mmHg 95%
    04:00 +5°C° 0.1 mm 3 mps 736 mmHg 95%
    05:00 +5°C° 0.1 mm 3 mps 736 mmHg 94%
    06:00 +5°C° 0.3 mm 4 mps 735 mmHg 93%
    07:00 +6°C° 0.3 mm 4 mps 735 mmHg 92%
    08:00 +6°C° 0.3 mm 4 mps 735 mmHg 91%
    09:00 +6°C° 0.3 mm 5 mps 735 mmHg 90%
    10:00 +7°C° 0.3 mm 5 mps 735 mmHg 89%
    11:00 +7°C° 0.3 mm 5 mps 735 mmHg 88%
    12:00 +7°C° 0.3 mm 5 mps 735 mmHg 87%
    13:00 +7°C° 0.3 mm 5 mps 736 mmHg 86%
    14:00 +7°C° 0.3 mm 6 mps 736 mmHg 85%
    15:00 +7°C° 0.3 mm 5 mps 736 mmHg 84%
    16:00 +7°C° 0.3 mm 5 mps 736 mmHg 84%
    17:00 +7°C° 0.3 mm 5 mps 737 mmHg 84%
    18:00 +6°C° 0.1 mm 5 mps 737 mmHg 84%
    19:00 +6°C° 0.1 mm 5 mps 737 mmHg 85%
    20:00 +5°C° 0.1 mm 5 mps 737 mmHg 85%
    21:00 +5°C° 0 mm 5 mps 738 mmHg 86%
    22:00 +3°C° 0 mm 5 mps 738 mmHg 87%
    23:00 +3°C° 0 mm 5 mps 738 mmHg 88%

    26 September, Wednesday

    Time Temperature Precipitation Wind Pressure Humidity
    00:00 +3°C° 0 mm 5 mps 738 mmHg 88%
    01:00 +2°C° 0 mm 5 mps 738 mmHg 88%
    02:00 +2°C° 0 mm 5 mps 739 mmHg 88%
    03:00 +2°C° 0 mm 5 mps 739 mmHg 88%
    04:00 +1°C° 0 mm 4 mps 739 mmHg 88%
    05:00 +1°C° 0 mm 4 mps 739 mmHg 88%
    06:00 +1°C° 0 mm 4 mps 739 mmHg 83%
    07:00 +3°C° 0 mm 4 mps 740 mmHg 78%
    08:00 +2°C° 0 mm 5 mps 740 mmHg 73%
    09:00 +3°C° 0 mm 5 mps 740 mmHg 65%
    10:00 +5°C° 0 mm 5 mps 740 mmHg 57%
    11:00 +6°C° 0 mm 5 mps 740 mmHg 48%
    12:00 +7°C° 0 mm 4 mps 741 mmHg 47%
    13:00 +7°C° 0 mm 4 mps 741 mmHg 45%
    14:00 +7°C° 0 mm 4 mps 741 mmHg 44%
    15:00 +7°C° 0 mm 3 mps 741 mmHg 49%
    16:00 +5°C° 0 mm 3 mps 741 mmHg 53%
    17:00 +5°C° 0 mm 2 mps 742 mmHg 58%
    18:00 +4°C° 0 mm 2 mps 742 mmHg 62%
    19:00 +3°C° 0 mm 2 mps 743 mmHg 66%
    20:00 +2°C° 0 mm 2 mps 743 mmHg 69%
    21:00 +2°C° 0 mm 2 mps 743 mmHg 72%
    22:00 +1°C° 0 mm 2 mps 744 mmHg 74%
    23:00 +1°C° 0 mm 2 mps 744 mmHg 76%
    Show more